Stations météo

Publicité
Nice, France (7690): Température de l'air & dewpoint: 17.07.2019 05:00:00 - 23.07.2019 05:00:00 (CEST)Nice, France (7690): Température de l'air 5cm: 17.07.2019 05:00:00 - 23.07.2019 05:00:00 (CEST)Nice, France (7690): Température de l'air -20cm & Température de l'air -100cm: 17.07.2019 05:00:00 - 23.07.2019 05:00:00 (CEST)Nice, France (7690): Vitesse du vent & gusts: 17.07.2019 05:00:00 - 23.07.2019 05:00:00 (CEST)Nice, France (7690): Direction du vent: 17.07.2019 05:00:00 - 23.07.2019 05:00:00 (CEST)Nice, France (7690): reduced air pressure: 17.07.2019 05:00:00 - 23.07.2019 05:00:00 (CEST)Nice, France (7690): visibility: 17.07.2019 05:00:00 - 23.07.2019 05:00:00 (CEST)Nice, France (7690): Ensoleillement: 17.07.2019 05:00:00 - 23.07.2019 05:00:00 (CEST)Nice, France (7690): Quantités de précipitations: 17.07.2019 05:00:00 - 23.07.2019 05:00:00 (CEST)
Date & Time tt [°C] td [°C] tt 5cm [°C] tt -20cm [°C] tt -100cm [°C] ff [km/h] ff [knt] fx [km/h] fx [knt] dd ppp [hPa] vv [km] sd [min] rr [mm]
23.07.2019 05:00:00 - - - - - - - - - - - - - -
23.07.2019 04:00:00 26,1 18,5 25,3 27,3 25,3 7 4 14 8 NNW 1019,1 20 0 0,0
23.07.2019 03:00:00 26,1 18,8 24,8 27,2 25,3 11 6 16 9 NNW 1019,1 20 0 0,0
23.07.2019 02:00:00 26,1 19,0 25,4 27,2 25,3 8 5 10 5 NW 1019,5 30 0 0,0
23.07.2019 01:00:00 26,7 19,1 25,6 27,2 25,3 5 3 13 7 NNW 1019,7 30 0 0,0
23.07.2019 00:00:00 26,4 19,3 25,4 27,2 25,3 7 4 14 8 NNW 1019,7 30 0 0,0
22.07.2019 23:00:00 26,2 20,3 25,8 27,2 25,3 6 4 10 6 WNW 1019,8 30 0 0,0
22.07.2019 22:00:00 26,4 21,8 26,2 27,1 25,2 6 4 8 5 SW 1019,9 30 0 0,0
22.07.2019 21:00:00 26,7 21,7 26,7 27,1 25,3 4 2 9 5 SSW 1019,9 30 28 0,0
22.07.2019 20:00:00 27,1 20,2 29,7 27,1 25,2 7 4 9 5 S 1019,9 30 32 0,0
22.07.2019 19:00:00 27,4 20,2 31,7 27,1 25,2 7 4 11 6 S 1020,0 30 54 0,0
22.07.2019 18:00:00 28,0 20,6 34,1 27,1 25,3 8 4 11 6 S 1020,4 30 60 0,0
22.07.2019 17:00:00 28,3 20,3 36,6 27,1 25,2 8 5 13 7 SSE 1020,8 30 60 0,0
22.07.2019 16:00:00 28,2 20,2 36,9 27,1 25,2 8 4 12 6 S 1021,1 30 60 0,0
22.07.2019 15:00:00 27,9 21,7 35,5 27,1 25,2 9 5 13 7 SSE 1021,3 30 60 0,0
22.07.2019 14:00:00 27,6 22,3 33,1 27,1 25,2 7 4 11 6 SSE 1021,8 20 24 0,0
22.07.2019 13:00:00 27,1 21,8 33,4 27,1 25,2 7 4 11 6 SE 1022,2 20 52 0,0
22.07.2019 12:00:00 27,2 21,7 32,7 27,1 25,2 7 4 10 6 SE 1022,3 25 48 0,0
22.07.2019 11:00:00 27,0 21,3 31,3 27,1 25,2 6 3 9 5 SSE 1022,5 25 49 0,0
22.07.2019 10:00:00 26,5 21,0 30,9 27,1 25,2 5 3 9 5 E 1022,3 25 52 0,0
22.07.2019 09:00:00 26,6 20,9 28,3 27,1 25,2 4 2 14 8 E 1022,1 20 60 0,0
22.07.2019 08:00:00 24,5 19,3 24,3 27,1 25,2 9 5 16 9 NNW 1021,7 20 60 0,0
22.07.2019 07:00:00 23,2 19,1 22,4 27,1 25,2 13 7 16 9 NNW 1021,3 20 27 0,0
22.07.2019 06:00:00 22,9 19,1 22,4 27,1 25,2 12 6 15 8 NNW 1021,0 20 0 0,0
22.07.2019 05:00:00 23,0 19,2 22,6 27,1 25,2 9 5 14 8 NNW 1021,0 20 0 0,0
22.07.2019 04:00:00 23,3 19,2 23,0 27,0 25,2 10 5 14 8 NNW 1021,1 30 0 0,0
22.07.2019 03:00:00 23,6 19,5 23,4 27,0 25,2 6 4 12 7 NNW 1021,2 30 0 0,0
22.07.2019 02:00:00 24,4 19,5 23,9 27,0 25,2 4 2 13 7 ENE 1021,3 30 0 0,0
22.07.2019 01:00:00 25,3 21,0 24,7 27,0 25,2 9 5 11 6 E 1021,3 30 0 0,0
22.07.2019 00:00:00 25,4 20,2 24,6 26,9 25,2 5 3 7 4 E 1021,1 30 0 0,0
21.07.2019 23:00:00 25,5 20,3 24,9 26,9 25,2 3 2 7 4 ESE 1021,1 30 0 0,0
21.07.2019 22:00:00 25,5 19,6 25,2 26,9 25,2 4 2 10 6 SSE 1020,6 30 0 0,0
21.07.2019 21:00:00 25,8 20,1 25,7 26,9 25,2 8 4 11 6 S 1020,1 30 0 0,0
21.07.2019 20:00:00 26,3 20,4 28,4 26,9 25,2 9 5 14 7 S 1020,0 30 52 0,0
21.07.2019 19:00:00 26,9 21,0 31,8 26,9 25,1 10 6 16 9 S 1019,7 30 60 0,0
21.07.2019 18:00:00 27,2 20,5 33,3 26,9 25,1 11 6 16 8 SSE 1019,9 30 60 0,0
21.07.2019 17:00:00 27,3 21,1 34,2 26,9 25,2 10 6 16 9 SE 1020,2 30 60 0,0
21.07.2019 16:00:00 27,1 21,6 34,8 26,9 25,1 12 7 17 9 SSE 1020,3 15 60 0,0
21.07.2019 15:00:00 27,5 21,8 35,0 26,9 25,1 14 7 21 11 S 1020,4 15 60 0,0
21.07.2019 14:00:00 27,0 21,7 34,3 26,9 25,1 13 7 18 10 SE 1020,6 15 60 0,0
21.07.2019 13:00:00 26,8 20,9 34,0 26,9 25,1 13 7 17 9 SE 1020,7 15 60 0,0
21.07.2019 12:00:00 26,6 21,1 32,8 26,9 25,1 10 5 14 8 ESE 1020,6 15 57 0,0
21.07.2019 11:00:00 26,5 21,3 30,5 26,8 25,1 7 4 11 6 SSE 1020,6 15 57 0,0
21.07.2019 10:00:00 25,8 21,0 31,9 26,9 25,1 6 4 11 6 SE 1020,3 12 60 0,0
21.07.2019 09:00:00 25,5 21,0 28,1 26,9 25,1 5 3 7 4 SSE 1020,1 12 34 0,0
21.07.2019 08:00:00 24,7 19,3 24,6 26,8 25,1 4 2 12 6 N 1020,3 12 60 0,0
21.07.2019 07:00:00 22,9 18,7 21,9 26,8 25,1 9 5 17 9 NNW 1020,0 12 28 0,0
21.07.2019 06:00:00 22,7 18,9 21,9 26,8 25,1 11 6 15 8 NNW 1019,7 12 0 0,0
21.07.2019 05:00:00 22,6 19,0 22,1 26,8 25,1 12 7 16 9 NNW 1019,4 12 0 0,0
21.07.2019 04:00:00 22,9 19,5 22,2 26,8 25,1 9 5 13 7 NW 1019,5 12 0 0,0
21.07.2019 03:00:00 23,3 19,5 22,6 26,8 25,1 8 4 14 7 NNW 1019,7 12 0 0,0
21.07.2019 02:00:00 23,7 19,6 23,1 26,7 25,1 6 4 10 6 NW 1019,9 15 0 0,0
21.07.2019 01:00:00 24,2 20,3 23,4 26,7 25,1 6 4 9 5 NW 1019,8 25 0 0,0
21.07.2019 00:00:00 24,5 21,6 23,8 26,7 25,1 4 2 7 4 WSW 1019,7 25 0 0,0
20.07.2019 23:00:00 24,7 21,0 24,1 26,7 25,1 5 3 8 5 S 1019,6 25 0 0,0
20.07.2019 22:00:00 24,8 20,9 24,4 26,7 25,1 5 3 7 4 SW 1019,4 25 0 0,0
20.07.2019 21:00:00 25,1 21,2 25,3 26,6 25,1 5 3 10 5 S 1018,6 25 20 0,0
20.07.2019 20:00:00 25,6 21,3 26,8 26,7 25,1 6 3 11 6 S 1018,6 25 37 0,0
20.07.2019 19:00:00 26,3 21,3 30,8 26,6 25,1 6 4 13 7 SSE 1018,6 25 60 0,0
20.07.2019 18:00:00 26,7 21,0 32,6 26,6 25,1 9 5 15 8 SE 1018,4 20 60 0,0
20.07.2019 17:00:00 27,1 21,4 31,5 26,6 25,1 11 6 14 8 SE 1018,5 20 55 0,0
20.07.2019 16:00:00 27,0 21,5 34,0 26,7 25,1 12 7 16 9 SE 1018,9 20 60 0,0
20.07.2019 15:00:00 26,7 21,5 32,1 26,6 25,1 11 6 18 10 SE 1019,2 20 55 0,0
20.07.2019 14:00:00 26,9 21,2 34,4 26,7 25,1 12 6 19 10 SE 1019,2 20 60 0,0
20.07.2019 13:00:00 26,7 20,5 33,7 26,7 25,1 13 7 17 9 ESE 1019,1 20 60 0,0
20.07.2019 12:00:00 26,6 20,9 32,2 26,7 25,1 14 7 19 11 ESE 1018,9 20 60 0,0
20.07.2019 11:00:00 26,3 21,1 31,7 26,7 25,1 16 9 19 10 ESE 1018,8 24 60 0,0
20.07.2019 10:00:00 25,8 20,6 30,1 26,7 25,1 10 6 15 8 E 1018,6 20 60 0,0
20.07.2019 09:00:00 25,2 20,5 28,6 26,7 25,1 11 6 16 9 E 1018,2 20 56 0,0
20.07.2019 08:00:00 24,7 18,4 23,9 26,6 25,1 6 4 13 7 NE 1017,6 25 58 0,0
20.07.2019 07:00:00 22,6 17,1 21,7 26,6 25,1 9 5 15 8 NNW 1017,5 25 29 0,0
20.07.2019 06:00:00 22,2 16,9 21,7 26,6 25,1 10 5 16 9 NNW 1017,3 25 0 0,0
20.07.2019 05:00:00 22,5 17,2 22,1 26,6 25,1 14 8 18 10 NNW 1017,2 20 0 0,0
20.07.2019 04:00:00 22,6 17,7 22,2 26,6 25,1 11 6 14 7 NW 1017,0 20 0 0,0
20.07.2019 03:00:00 23,5 18,6 22,9 26,5 25,0 6 3 9 5 NNW 1016,8 20 0 0,0
20.07.2019 02:00:00 23,6 18,9 22,9 26,5 25,0 6 3 9 5 NW 1016,8 20 0 0,0
20.07.2019 01:00:00 24,4 20,9 22,9 26,5 25,1 5 3 10 5 ENE 1016,8 20 0 0,0
20.07.2019 00:00:00 24,0 20,7 23,1 26,5 25,1 4 2 6 3 E 1016,8 20 0 0,0
19.07.2019 23:00:00 24,2 20,7 23,5 26,5 25,1 3 1 7 4 S 1016,6 25 0 0,0
19.07.2019 22:00:00 24,4 20,5 24,0 26,5 25,1 4 2 7 4 SSE 1016,3 25 0 0,0
19.07.2019 21:00:00 24,8 20,3 24,7 26,4 25,1 3 2 10 5 SSE 1015,9 30 32 0,0
19.07.2019 20:00:00 25,4 20,2 28,3 26,5 25,1 6 3 12 7 S 1015,7 30 58 0,0
19.07.2019 19:00:00 26,0 20,3 32,1 26,5 25,1 6 4 11 6 S 1015,7 35 60 0,0
19.07.2019 18:00:00 26,1 20,7 32,3 26,5 25,1 8 4 12 6 SE 1015,7 30 60 0,0
19.07.2019 17:00:00 26,1 20,9 33,1 26,5 25,1 9 5 13 7 SE 1016,0 20 60 0,0
19.07.2019 16:00:00 26,4 20,9 34,0 26,5 25,1 9 5 17 9 ESE 1016,3 20 60 0,0
19.07.2019 15:00:00 26,3 20,8 33,9 26,5 25,1 11 6 16 8 SE 1016,4 20 60 0,0
19.07.2019 14:00:00 26,1 20,7 33,4 26,5 25,1 12 6 19 10 SE 1016,5 20 60 0,0
19.07.2019 13:00:00 26,1 20,7 32,9 26,5 25,1 15 8 21 11 ESE 1016,4 20 60 0,0
19.07.2019 12:00:00 26,1 20,7 32,4 26,5 25,1 14 8 20 11 ESE 1016,4 20 60 0,0
19.07.2019 11:00:00 26,0 20,6 31,6 26,5 25,1 13 7 16 9 ESE 1016,1 20 60 0,0
19.07.2019 10:00:00 25,5 20,7 29,2 26,5 25,1 10 5 15 8 E 1015,9 20 58 0,0
19.07.2019 09:00:00 25,2 20,0 28,4 26,5 25,1 6 4 13 7 E 1015,7 20 60 0,0
19.07.2019 08:00:00 24,0 17,0 23,4 26,5 25,1 8 4 19 10 N 1015,4 20 60 0,0
19.07.2019 07:00:00 22,4 17,1 21,0 26,5 25,1 11 6 18 10 NNW 1014,9 20 26 0,0
19.07.2019 06:00:00 21,6 17,2 21,0 26,5 25,1 10 5 16 8 NNW 1014,7 20 0 0,0
19.07.2019 05:00:00 22,2 17,6 21,7 26,4 25,1 11 6 13 7 NW 1014,7 20 0 0,0
19.07.2019 04:00:00 22,5 18,5 21,9 26,4 25,1 10 5 12 7 NNW 1014,6 20 0 0,0
19.07.2019 03:00:00 22,9 19,3 22,3 26,4 25,1 8 5 11 6 NNW 1014,5 20 0 0,0
19.07.2019 02:00:00 23,3 19,9 22,5 26,4 25,1 5 3 9 5 NNW 1014,3 20 0 0,0
19.07.2019 01:00:00 23,4 20,3 22,7 26,4 25,1 7 4 9 5 WNW 1014,0 20 0 0,0
19.07.2019 00:00:00 23,8 20,5 23,2 26,4 25,1 3 2 8 5 E 1013,9 20 0 0,0
18.07.2019 23:00:00 23,9 20,4 23,5 26,4 25,1 5 3 8 4 ESE 1013,8 20 0 0,0
18.07.2019 22:00:00 24,1 20,2 23,7 26,4 25,1 5 3 7 4 ESE 1013,4 20 0 0,0
18.07.2019 21:00:00 24,3 20,2 24,4 26,4 25,1 4 2 8 5 ESE 1012,8 20 18 0,0
18.07.2019 20:00:00 24,6 20,1 25,6 26,4 25,1 6 3 11 6 ESE 1012,6 20 0 0,0
18.07.2019 19:00:00 24,9 19,9 26,9 26,4 25,1 7 4 14 7 SSE 1012,3 20 34 0,0
18.07.2019 18:00:00 25,5 19,9 29,7 26,4 25,1 10 5 21 11 ESE 1012,1 20 60 0,0
18.07.2019 17:00:00 25,6 20,6 29,7 26,4 25,1 15 8 22 12 E 1012,2 20 49 0,0
18.07.2019 16:00:00 25,7 20,7 30,9 26,4 25,1 13 7 17 9 E 1012,5 20 56 0,0
18.07.2019 15:00:00 25,8 20,4 32,4 26,4 25,1 13 7 21 11 ESE 1012,4 20 60 0,0
18.07.2019 14:00:00 26,0 20,3 32,2 26,4 25,2 14 8 21 12 ESE 1012,3 20 60 0,0
18.07.2019 13:00:00 26,5 20,3 32,0 26,4 25,1 17 9 22 12 ESE 1012,2 20 60 0,0
18.07.2019 12:00:00 25,9 19,8 31,9 26,4 25,1 11 6 18 10 ESE 1012,3 20 60 0,0
18.07.2019 11:00:00 25,6 19,5 30,4 26,4 25,2 13 7 18 10 E 1011,8 20 58 0,0
18.07.2019 10:00:00 25,6 19,5 28,9 26,4 25,1 9 5 16 9 E 1011,7 25 60 0,0
18.07.2019 09:00:00 24,1 16,9 22,6 26,5 25,2 11 6 22 12 NNW 1011,6 25 18 0,0
18.07.2019 08:00:00 21,8 16,1 21,4 26,4 25,1 14 8 22 12 NNW 1011,3 30 0 0,0
18.07.2019 07:00:00 21,2 16,4 20,7 26,5 25,2 15 8 20 11 NNW 1011,0 30 1 0,0
18.07.2019 06:00:00 20,9 16,5 20,7 26,4 25,2 14 7 18 10 NNW 1011,0 30 0 0,0
18.07.2019 05:00:00 21,4 17,2 21,1 26,5 25,2 14 7 18 10 NW 1010,8 30 0 0,0
18.07.2019 04:00:00 22,6 18,2 22,3 26,4 25,2 9 5 16 9 NNE 1010,5 30 0 0,0
18.07.2019 03:00:00 22,8 18,8 21,7 26,4 25,2 8 5 14 8 NNE 1010,5 30 0 0,0
18.07.2019 02:00:00 23,1 18,8 22,4 26,4 25,2 9 5 14 7 NNE 1010,8 10 0 0,0
18.07.2019 01:00:00 23,8 20,3 22,9 26,4 25,2 8 4 10 5 NE 1011,1 30 0 0,0
18.07.2019 00:00:00 23,5 20,4 22,5 26,4 25,2 0 0 3 2 N 1011,5 30 0 0,0
17.07.2019 23:00:00 23,8 20,5 23,3 26,4 25,2 3 2 8 4 SSE 1011,8 30 0 0,0
17.07.2019 22:00:00 24,1 21,0 23,6 26,4 25,2 5 3 10 6 SSE 1011,8 30 0 0,0
17.07.2019 21:00:00 24,2 20,1 24,3 26,4 25,2 8 4 14 8 ESE 1011,4 30 28 0,0
17.07.2019 20:00:00 24,6 20,7 25,7 26,4 25,3 10 6 16 9 ESE 1011,4 30 25 0,0
17.07.2019 19:00:00 25,4 20,2 29,0 26,4 25,3 13 7 19 10 E 1011,6 30 60 0,0
17.07.2019 18:00:00 25,7 20,5 30,0 26,5 25,3 15 8 21 11 E 1012,0 30 60 0,0
17.07.2019 17:00:00 26,1 20,2 30,8 26,5 25,3 16 9 23 13 ESE 1012,3 30 60 0,0
17.07.2019 16:00:00 26,1 20,4 32,2 26,5 25,3 16 9 21 11 E 1012,3 30 60 0,0
17.07.2019 15:00:00 25,8 20,1 32,4 26,5 25,3 13 7 16 9 E 1012,7 30 60 0,0
17.07.2019 14:00:00 25,6 19,5 32,3 26,6 25,3 13 7 19 10 E 1012,9 30 60 0,0
17.07.2019 13:00:00 25,5 20,5 31,9 26,6 25,3 14 8 22 12 ESE 1013,2 30 60 0,0
17.07.2019 12:00:00 25,4 20,2 31,0 26,6 25,3 18 10 25 14 ESE 1013,4 30 60 0,0
17.07.2019 11:00:00 25,4 20,6 29,5 26,6 25,3 19 10 24 13 E 1013,4 40 58 0,0
17.07.2019 10:00:00 25,2 19,1 29,5 26,6 25,3 16 8 21 11 E 1013,8 40 60 0,0
17.07.2019 09:00:00 25,0 16,2 28,1 26,7 25,3 8 4 15 8 NE 1013,7 40 60 0,0
17.07.2019 08:00:00 23,6 13,7 23,4 26,7 25,4 9 5 18 10 N 1013,4 50 60 0,0
17.07.2019 07:00:00 21,8 13,4 21,0 26,7 25,4 14 8 20 11 NNW 1013,1 50 28 0,0
17.07.2019 06:00:00 21,8 13,4 21,0 26,7 25,4 11 6 16 9 NNW 1013,1 50 0 0,0
17.07.2019 05:00:00 22,1 13,4 20,8 26,7 25,4 8 4 14 7 NW 1012,7 50 0 0,0

tt = Température de l'air
td = dewpoint
tt 5cm = Température de l'air 5cm
tt -20cm = Température de l'air -20cm
tt -100cm = Température de l'air -100cm
ff = Vitesse du vent
fx = gusts
dd = Direction du vent
ppp = reduced air pressure
vv = visibility
sd = Ensoleillement
rr = Quantités de précipitations

stations d'obs. à proximité